CDT,Max TemperatureF,Mean TemperatureF,Min TemperatureF,Max Dew PointF,MeanDew PointF,Min DewpointF,Max Humidity, Mean Humidity, Min Humidity, Max Sea Level PressureIn, Mean Sea Level PressureIn, Min Sea Level PressureIn, Max VisibilityMiles, Mean VisibilityMiles, Min VisibilityMiles, Max Wind SpeedMPH, Mean Wind SpeedMPH, Max Gust SpeedMPH,PrecipitationIn, CloudCover, Events, WindDirDegrees
2013-3-1,37,34,31,32,30,26,94,83,70,30.09,30.06,30.03,10,9,2,9,3,,0.00,7,Rain-Snow,291
2013-3-2,34,32,29,30,28,24,95,86,71,30.15,30.09,30.03,10,7,2,12,6,18,0.02,7,Rain-Snow,307
2013-3-3,42,34,25,25,20,15,89,64,33,30.17,30.13,30.10,10,10,7,10,5,17,0.00,2,Snow,323
2013-3-4,61,44,26,40,27,18,92,53,29,30.16,30.05,29.91,10,10,10,20,5,28,0.00,1,,158
2013-3-5,59,46,34,56,43,26,92,82,65,30.07,29.94,29.74,10,10,4,22,14,34,0.12,6,Rain,234
2013-3-6,40,35,29,28,24,20,86,66,57,30.28,30.21,30.08,10,10,10,16,8,24,0.00,5,,322
2013-3-7,49,38,26,31,28,24,93,74,49,30.34,30.30,30.26,10,10,7,9,3,,0.00,0,,351
2013-3-8,62,44,25,32,27,19,96,60,21,30.37,30.30,30.23,10,9,4,8,2,,0.00,0,,16
2013-3-9,64,50,36,37,31,24,82,43,30,30.26,30.19,30.10,10,10,10,12,5,18,0.00,0,,130
2013-3-10,73,62,52,48,40,32,56,44,33,30.11,30.02,29.91,10,10,10,23,10,31,0.00,1,Thunderstorm,156
2013-3-11,63,50,36,52,43,32,98,84,50,29.99,29.90,29.83,10,8,3,20,10,29,1.35,7,Rain,238
2013-3-12,53,42,30,32,30,27,92,67,43,30.19,30.09,29.99,10,10,10,13,5,20,0.00,0,,328
2013-3-13,50,41,32,30,24,18,88,53,31,30.38,30.27,30.17,10,10,10,15,5,23,0.00,0,,318
2013-3-14,55,40,26,33,20,12,77,49,18,30.44,30.35,30.26,10,10,10,10,3,17,0.00,0,,3
2013-3-15,74,56,39,44,36,20,61,44,32,30.26,30.11,29.99,10,10,10,15,6,23,0.00,0,,211
2013-3-16,74,63,52,46,43,40,67,48,35,30.02,29.97,29.92,10,10,10,15,9,25,0.00,0,,218
2013-3-17,67,59,51,53,49,45,91,68,52,30.01,29.95,29.89,10,10,10,15,7,23,0.00,1,,190
2013-3-18,67,59,51,62,55,46,93,87,79,29.96,29.86,29.78,10,9,5,18,10,36,0.31,6,Rain-Thunderstorm,200
2013-3-19,58,46,35,46,34,24,97,60,35,30.17,30.10,29.97,10,10,4,14,7,22,0.00,0,,1
2013-3-20,56,46,36,31,24,18,77,46,29,30.18,30.10,30.01,10,10,10,14,5,25,0.00,1,,320
2013-3-21,45,35,25,28,18,10,79,49,27,30.10,30.02,29.96,10,10,7,10,5,16,0.00,0,Rain,348
2013-3-22,45,40,35,39,34,24,94,79,54,30.04,29.99,29.96,10,10,4,10,3,,0.13,7,Rain,104
2013-3-23,54,48,42,50,46,39,99,93,86,29.96,29.87,29.68,10,6,2,13,5,23,1.03,7,Rain-Thunderstorm,83
2013-3-24,57,47,37,54,44,25,99,81,57,29.83,29.66,29.54,10,9,2,18,8,31,0.72,7,Rain-Thunderstorm,208
2013-3-25,38,34,31,26,22,20,73,62,50,30.16,30.01,29.84,10,10,10,14,10,24,0.00,6,,285
2013-3-26,39,34,30,26,24,23,77,67,55,30.35,30.26,30.15,10,10,10,12,6,18,0.00,7,,310
2013-3-27,52,38,24,32,26,23,96,66,35,30.41,30.35,30.30,10,10,10,12,2,17,0.00,1,,331
2013-3-28,61,46,30,35,29,23,94,60,26,30.38,30.32,30.28,10,10,10,9,1,16,0.00,0,,358
2013-3-29,67,52,36,43,35,31,87,53,30,30.32,30.25,30.17,10,10,10,15,4,22,0.00,3,,187
2013-3-30,66,54,41,54,47,39,99,83,48,30.20,30.12,30.01,10,8,2,9,1,,0.39,6,Rain,182
2013-3-31,66,60,54,58,55,53,99,89,65,30.01,29.95,29.89,10,8,0,13,5,20,0.07,7,Fog-Rain,218